{"data":{"norad_id":67362,"epoch":"2026-05-25T01:13:55.800192Z","epoch_age_seconds":64422,"freshness":"FRESH","line1":"1 67362U 26003AE  26145.05134028  .00007227  00000+0  27182-3 0  9996","line2":"2 67362  42.9999 155.7078 0000595 236.4785 123.6010 15.27587626 20504","mean_motion":15.27587626,"eccentricity":5.95e-5,"inclination_deg":42.9999,"raan_deg":155.7078,"arg_perigee_deg":236.4785,"mean_anomaly_deg":123.601,"bstar":0.00027182,"rev_number":2050,"period_min":94.266278116605,"perigee_km":482.61802193317,"apogee_km":483.43450036125,"semimajor_km":6861.1632611472,"source":"CELESTRAK","updated_at":"2026-05-25T13:38:21.550967Z"}}